Wrangell, AK

11:39 PM AKDT on July 24, 2016 (GMT -0800)
Wrangell

Weather History for PAWG - October, 2013

Change the Weather History Date:

Tuesday, October 8, 2013

  Actual Average Record
Temperature  
Mean Temperature 45 °F -  
Max Temperature 48 °F 52 °F 63 °F (1951)
Min Temperature 42 °F 40 °F 28 °F (1958)
Degree Days  
Heating Degree Days 20    
Moisture  
Dew Point 40 °F    
Average Humidity 79    
Maximum Humidity 87    
Minimum Humidity 71    
Precipitation  
Precipitation 0.08 in - - ()
Sea Level Pressure  
Sea Level Pressure 30.08 in    
Wind  
Wind Speed 4 mph (East)    
Max Wind Speed 21 mph    
Max Gust Speed 28 mph    
Visibility 10 miles    
Events      
Averages and records for this station are not official NWS values.
T = Trace of Precipitation, MM = Missing Value Source: NWS Daily Summary

Daily Weather History Graph

Daily Weather History Graph

Search for Another Location

Airport or City:

Trip Planner

Search our weather history database for the weather conditions in past years. The results will help you decide how hot, cold, wet, or windy it might be!

Date:

Astronomy

Oct. 08, 2013 Rise Set
Actual Time 7:07 AM AKDT 6:04 PM AKDT
Civil Twilight 6:30 AM AKDT 6:42 PM AKDT
Nautical Twilight 5:46 AM AKDT 7:25 PM AKDT
Astronomical Twilight 5:02 AM AKDT 8:10 PM AKDT
Moon 11:54 AM AKDT (10/8) 8:02 PM AKDT (10/8)
Length of Visible Light 12h 12m
Length of Day
10h 56m
Waxing Crescent, 17% of the Moon is Illuminated
Oct 8
Waxing Crescent
Oct 11
First Quarter
Oct 18
Full
Oct 26
Last Quarter
Nov 3
New

Hourly Weather History & Observations

Time (AKDT) Temp. Windchill Dew Point Humidity Pressure Visibility Wind Dir Wind Speed Gust Speed Precip Events Conditions
12:16 AM 44.6 °F 42.2 °F 39.2 °F 81% 30.01 in 10.0 mi SW 4.6 mph - N/A   Overcast
12:36 AM 44.6 °F - 39.2 °F 81% 30.02 in 10.0 mi Calm Calm - N/A   Overcast
12:56 AM 44.6 °F - 39.2 °F 81% 30.03 in 10.0 mi Calm Calm - N/A   Overcast
1:16 AM 44.6 °F - 39.2 °F 81% 30.03 in 10.0 mi Calm Calm - N/A   Overcast
1:36 AM 44.6 °F 43.1 °F 39.2 °F 81% 30.04 in 10.0 mi SSE 3.5 mph - N/A   Overcast
1:56 AM 44.6 °F 43.1 °F 41.0 °F 87% 30.05 in 10.0 mi West 3.5 mph - N/A   Overcast
2:16 AM 44.6 °F 42.2 °F 41.0 °F 87% 30.06 in 10.0 mi NNW 4.6 mph - N/A   Overcast
2:36 AM 44.6 °F 41.4 °F 39.2 °F 81% 30.07 in 10.0 mi North 5.8 mph - N/A   Overcast
2:56 AM 44.6 °F 42.2 °F 39.2 °F 81% 30.08 in 10.0 mi NW 4.6 mph - N/A   Overcast
3:16 AM 44.6 °F - 39.2 °F 81% 30.08 in 10.0 mi Calm Calm - N/A   Overcast
3:36 AM 44.6 °F 41.4 °F 41.0 °F 87% 30.09 in 10.0 mi NW 5.8 mph - N/A   Overcast
3:56 AM 44.6 °F - 39.2 °F 81% 30.10 in 10.0 mi Calm Calm - N/A   Overcast
4:16 AM 44.6 °F - 39.2 °F 81% 30.11 in 10.0 mi Calm Calm - N/A   Overcast
4:36 AM 44.6 °F 42.2 °F 39.2 °F 81% 30.11 in 10.0 mi WNW 4.6 mph - N/A   Overcast
4:56 AM 44.6 °F 43.1 °F 39.2 °F 81% 30.12 in 10.0 mi NW 3.5 mph - N/A   Overcast
5:16 AM 44.6 °F 43.1 °F 39.2 °F 81% 30.13 in 10.0 mi NNW 3.5 mph - N/A   Overcast
5:36 AM 44.6 °F - 39.2 °F 81% 30.13 in 10.0 mi Calm Calm - N/A   Overcast
5:56 AM 44.6 °F - 39.2 °F 81% 30.14 in 10.0 mi Calm Calm - N/A   Overcast
6:16 AM 44.6 °F - 39.2 °F 81% 30.14 in 10.0 mi Calm Calm - N/A   Overcast
6:36 AM 42.8 °F 41.1 °F 39.2 °F 87% 30.14 in 10.0 mi West 3.5 mph - N/A   Overcast
6:56 AM 42.8 °F - 37.4 °F 81% 30.14 in 10.0 mi Calm Calm - N/A   Overcast
7:16 AM 42.8 °F 41.1 °F 39.2 °F 87% 30.14 in 10.0 mi NNW 3.5 mph - N/A   Scattered Clouds
7:36 AM 42.8 °F - 39.2 °F 87% 30.14 in 10.0 mi Calm Calm - N/A   Scattered Clouds
7:56 AM 42.8 °F - 37.4 °F 81% 30.14 in 10.0 mi Calm Calm - N/A   Scattered Clouds
8:16 AM 42.8 °F - 37.4 °F 81% 30.15 in 10.0 mi Calm Calm - N/A   Mostly Cloudy
8:36 AM 44.6 °F - 39.2 °F 81% 30.15 in 10.0 mi Calm Calm - N/A   Mostly Cloudy
8:56 AM 44.6 °F - 39.2 °F 81% 30.15 in 10.0 mi Calm Calm - N/A   Overcast
9:16 AM 44.6 °F - 39.2 °F 81% 30.15 in 10.0 mi Calm Calm - N/A   Overcast
9:36 AM 44.6 °F 43.1 °F 39.2 °F 81% 30.15 in 10.0 mi SE 3.5 mph - N/A   Overcast
9:56 AM 44.6 °F 43.1 °F 39.2 °F 81% 30.15 in 10.0 mi SSE 3.5 mph - N/A   Overcast
10:16 AM 44.6 °F - 41.0 °F 87% 30.15 in 10.0 mi Calm Calm - N/A   Overcast
10:36 AM 46.4 °F 45.2 °F 41.0 °F 81% 30.14 in 10.0 mi NE 3.5 mph - N/A   Overcast
10:56 AM 46.4 °F 45.2 °F 41.0 °F 81% 30.15 in 10.0 mi NNW 3.5 mph - N/A   Scattered Clouds
11:16 AM 46.4 °F 45.2 °F 41.0 °F 81% 30.15 in 10.0 mi North 3.5 mph - N/A   Scattered Clouds
11:36 AM 46.4 °F 44.3 °F 41.0 °F 81% 30.15 in 10.0 mi ENE 4.6 mph - N/A   Scattered Clouds
11:56 AM 46.4 °F - 41.0 °F 81% 30.17 in 10.0 mi Calm Calm - N/A   Overcast
12:16 PM 46.4 °F 45.2 °F 41.0 °F 81% 30.17 in 10.0 mi NNW 3.5 mph - N/A   Overcast
12:36 PM 46.4 °F 44.3 °F 39.2 °F 76% 30.17 in 10.0 mi NNW 4.6 mph - N/A   Overcast
12:56 PM 46.4 °F 45.2 °F 41.0 °F 81% 30.17 in 10.0 mi NNW 3.5 mph - N/A   Overcast
1:16 PM 46.4 °F 44.3 °F 39.2 °F 76% 30.17 in 10.0 mi NNW 4.6 mph - N/A   Overcast
1:36 PM 46.4 °F 45.2 °F 39.2 °F 76% 30.16 in 10.0 mi NNW 3.5 mph - N/A   Overcast
1:56 PM 46.4 °F - 41.0 °F 81% 30.16 in 10.0 mi Calm Calm - N/A   Overcast
2:16 PM 46.4 °F 45.2 °F 41.0 °F 81% 30.16 in 10.0 mi SE 3.5 mph - N/A   Overcast
2:36 PM 46.4 °F - 39.2 °F 76% 30.15 in 10.0 mi Calm Calm - N/A   Overcast
2:56 PM 48.2 °F - 41.0 °F 76% 30.14 in 10.0 mi Calm Calm - N/A   Overcast
3:16 PM 48.2 °F - 41.0 °F 76% 30.13 in 10.0 mi Calm Calm - N/A   Overcast
3:36 PM 48.2 °F - 41.0 °F 76% 30.12 in 10.0 mi Calm Calm - N/A   Overcast
3:56 PM 48.2 °F - 41.0 °F 76% 30.11 in 10.0 mi Calm Calm - N/A   Overcast
4:16 PM 48.2 °F - 41.0 °F 76% 30.11 in 10.0 mi Calm Calm - N/A   Overcast
4:36 PM 48.2 °F - 41.0 °F 76% 30.12 in 10.0 mi Calm Calm - N/A   Overcast
4:56 PM 48.2 °F - 41.0 °F 76% 30.11 in 10.0 mi SSE 4.6 mph - N/A   Overcast
5:16 PM 48.2 °F - 41.0 °F 76% 30.11 in 10.0 mi Calm Calm - N/A   Mostly Cloudy
5:36 PM 48.2 °F - 41.0 °F 76% 30.08 in 10.0 mi ESE 4.6 mph - N/A   Mostly Cloudy
5:56 PM 48.2 °F - 39.2 °F 71% 30.07 in 10.0 mi SSE 5.8 mph - N/A   Mostly Cloudy
6:16 PM 48.2 °F - 42.8 °F 82% 30.06 in 10.0 mi ESE 9.2 mph - N/A   Mostly Cloudy
6:36 PM 48.2 °F - 41.0 °F 76% 30.06 in 10.0 mi East 10.4 mph - N/A   Mostly Cloudy
6:56 PM 48.2 °F - 41.0 °F 76% 30.04 in 10.0 mi East 11.5 mph - N/A   Mostly Cloudy
7:16 PM 48.2 °F - 41.0 °F 76% 30.03 in 10.0 mi ESE 8.1 mph - N/A   Mostly Cloudy
7:36 PM 48.2 °F - 41.0 °F 76% 30.02 in 10.0 mi South 8.1 mph - N/A   Mostly Cloudy
7:56 PM 48.2 °F - 39.2 °F 71% 30.02 in 10.0 mi SSW 3.5 mph - N/A   Mostly Cloudy
8:16 PM 48.2 °F - 39.2 °F 71% 30.01 in 10.0 mi ESE 11.5 mph 16.1 mph N/A   Mostly Cloudy
8:36 PM 48.2 °F - 39.2 °F 71% 30.00 in 10.0 mi SSE 15.0 mph 18.4 mph N/A   Mostly Cloudy
8:56 PM 48.2 °F - 39.2 °F 71% 29.99 in 10.0 mi ESE 15.0 mph 20.7 mph N/A   Mostly Cloudy
9:16 PM 48.2 °F - 39.2 °F 71% 29.97 in 10.0 mi ESE 13.8 mph 21.9 mph N/A   Mostly Cloudy
9:36 PM 48.2 °F - 41.0 °F 76% 29.96 in 10.0 mi ESE 15.0 mph 21.9 mph N/A   Mostly Cloudy
9:56 PM 48.2 °F - 41.0 °F 76% 29.94 in 10.0 mi ESE 12.7 mph 23.0 mph N/A   Mostly Cloudy
10:16 PM 48.2 °F - 41.0 °F 76% 29.93 in 10.0 mi ESE 15.0 mph 19.6 mph N/A   Mostly Cloudy
10:36 PM 48.2 °F - 41.0 °F 76% 29.91 in 10.0 mi ESE 16.1 mph 24.2 mph N/A   Mostly Cloudy
10:56 PM 48.2 °F - 41.0 °F 76% 29.89 in 10.0 mi ESE 18.4 mph 26.5 mph N/A   Mostly Cloudy
11:16 PM 46.4 °F 39.0 °F 41.0 °F 81% 29.88 in 5.0 mi ESE 19.6 mph 25.3 mph 0.02 in   Overcast
11:36 PM 46.4 °F 39.5 °F 41.0 °F 81% 29.87 in 10.0 mi ESE 17.3 mph 27.6 mph 0.05 in   Overcast
11:56 PM 46.4 °F 38.7 °F 41.0 °F 81% 29.85 in 9.0 mi ESE 20.7 mph 27.6 mph 0.08 in   Overcast